GW2440 Weather Reports


Display with metric or nautical units.
time (UTC)temp
F
wind
direction
speed
MPH
gust
MPH
rain 1hr
in
rain 24hr
in
rain mn
in
humidity
%
barometer
mb
20260901110110 76 197 0.0 0.0 0.00 0.00 0.00 99 1017.9
20260901105607 76 197 0.0 0.0 0.00 0.00 0.00 99 1017.9
20260901105100 76 98 0.0 0.0 0.00 0.00 0.00 99 1017.5
20260901104557 76 108 0.0 0.0 0.00 0.00 0.00 99 1017.9
20260901104051 76 141 0.0 0.0 0.00 0.00 0.00 99 1017.9
20260901103545 76 133 0.0 0.0 0.00 0.00 0.00 99 1017.9
20260901103042 76 211 0.0 0.0 0.00 0.00 0.00 99 1017.5
20260901102541 77 78 0.0 0.0 0.00 0.00 0.00 99 1017.5
20260901102036 77 84 0.0 0.0 0.00 0.00 0.00 99 1017.5
20260901101532 77 84 0.0 0.0 0.00 0.00 0.00 99 1017.5
20260901101031 77 85 0.0 0.0 0.00 0.00 0.00 99 1017.2
20260901100526 77 124 0.0 0.0 0.00 0.00 0.00 99 1017.5
20260901100025 77 141 0.0 0.0 0.00 0.00 0.00 99 1017.5
20260901095523 77 131 0.0 0.0 0.00 0.00 0.00 99 1017.5
20260901095021 77 284 0.0 0.0 0.00 0.00 0.00 99 1017.5
20260901094516 77 81 0.0 0.0 0.00 0.00 0.00 99 1017.2
20260901094016 77 81 0.0 0.0 0.00 0.00 0.00 99 1017.2
20260901093510 77 91 0.0 0.0 0.00 0.00 0.00 99 1017.2
20260901093005 77 357 0.0 0.0 0.00 0.00 0.00 99 1017.5
20260901092501 77 97 0.0 0.0 0.00 0.00 0.00 99 1017.5
20260901091957 77 121 0.0 0.0 0.00 0.00 0.00 99 1017.2
20260901091452 77 123 0.0 0.0 0.00 0.00 0.00 99 1017.2
20260901090946 77 104 0.0 0.0 0.00 0.00 0.00 99 1017.2
20260901090446 77 104 0.0 0.0 0.00 0.00 0.00 99 1017.2
20260901085942 77 27 0.0 0.0 0.00 0.00 0.00 99 1017.5
20260901085438 77 82 0.0 0.0 0.00 0.00 0.00 99 1017.2
20260901084934 77 312 0.0 0.0 0.00 0.00 0.00 99 1017.5
20260901084430 77 25 0.0 0.0 0.00 0.00 0.00 99 1017.5
20260901083926 77 50 0.0 0.0 0.00 0.00 0.00 99 1017.5
20260901083425 77 83 0.0 0.0 0.00 0.00 0.00 99 1017.5
20260901082924 77 135 0.0 0.0 0.00 0.00 0.00 99 1017.2
20260901082419 77 91 0.0 0.0 0.00 0.00 0.00 99 1017.2
20260901081914 77 23 0.0 0.0 0.00 0.00 0.00 99 1017.2
20260901081409 77 42 0.0 0.0 0.00 0.00 0.00 99 1017.5
20260901080903 77 48 0.0 0.0 0.00 0.00 0.00 99 1017.5
20260901080357 77 81 0.0 0.0 0.00 0.00 0.00 99 1017.5
20260901075851 77 88 0.0 0.0 0.00 0.00 0.00 99 1017.2
20260901075347 77 41 0.0 0.0 0.00 0.00 0.00 99 1017.5
20260901074842 77 345 0.0 0.0 0.00 0.00 0.00 99 1017.2
20260901074336 76 328 0.0 0.0 0.00 0.00 0.00 99 1017.2
20260901073827 76 229 0.0 0.0 0.00 0.00 0.00 99 1017.5
20260901073322 76 228 0.0 0.0 0.00 0.00 0.00 99 1017.2
20260901072818 76 228 0.0 0.0 0.00 0.00 0.00 99 1017.5
20260901072317 77 227 0.0 0.0 0.00 0.00 0.00 99 1017.5
20260901071813 76 227 0.0 0.0 0.00 0.00 0.00 99 1017.5
20260901071311 77 227 0.0 0.0 0.00 0.00 0.00 99 1017.5
20260901070810 77 227 0.0 0.0 0.00 0.00 0.00 99 1017.5
20260901070306 77 227 0.0 0.0 0.00 0.00 0.00 99 1017.5
20260901065805 77 227 0.0 0.0 0.00 0.00 0.00 99 1017.9
20260901065300 77 227 0.0 0.0 0.00 0.00 0.00 99 1017.9
20260901064756 77 227 0.0 0.0 0.00 0.00 0.00 99 1017.5
20260901064252 77 220 0.0 0.0 0.00 0.00 0.00 99 1017.9
20260901063750 77 240 0.0 0.0 0.00 0.00 0.00 99 1017.9
20260901063245 77 179 0.0 0.0 0.00 0.00 0.00 99 1017.9
20260901062741 77 178 0.0 0.0 0.00 0.00 0.00 99 1017.9
20260901062237 77 178 0.0 0.0 0.00 0.00 0.00 99 1018.2
20260901061733 77 177 0.0 0.0 0.00 0.00 0.00 99 1018.2
20260901061232 77 177 0.0 0.0 0.00 0.00 0.00 99 1018.2
20260901060728 77 177 0.0 0.0 0.00 0.00 0.00 99 1018.6
20260901060223 77 177 0.0 0.0 0.00 0.00 0.00 99 1018.6
20260901055718 77 175 0.0 0.0 0.00 0.00 0.00 99 1018.6
20260901055215 77 174 0.0 0.0 0.00 0.00 0.00 99 1018.6
20260901054712 77 91 0.0 0.0 0.00 0.00 0.00 99 1018.6
20260901054208 77 91 0.0 0.0 0.00 0.00 0.00 99 1018.6
20260901053703 77 91 0.0 0.0 0.00 0.00 0.00 99 1018.6
20260901053159 77 91 0.0 0.0 0.00 0.00 0.00 99 1018.6
20260901052654 78 93 0.0 0.0 0.00 0.00 0.00 99 1018.9
20260901052149 77 113 0.0 0.0 0.00 0.00 0.00 99 1018.9
20260901051648 77 114 0.0 0.0 0.00 0.00 0.00 99 1018.9
20260901051148 78 113 0.0 0.0 0.00 0.00 0.00 99 1018.9
20260901050643 78 133 0.0 0.0 0.00 0.00 0.00 99 1018.9
20260901050138 78 127 0.0 0.0 0.00 0.00 0.00 99 1019.2
20260901045632 78 91 0.0 0.0 0.00 0.00 0.00 99 1019.2
20260901045127 78 343 0.0 0.0 0.00 0.00 0.00 99 1018.9
20260901044623 78 354 0.0 0.0 0.00 0.00 0.00 99 1019.2
20260901044119 78 325 1.0 1.0 0.00 0.00 0.00 99 1019.2
20260901043614 78 251 0.0 0.0 0.00 0.00 0.00 99 1019.2
20260901043110 78 260 0.0 0.0 0.00 0.00 0.00 99 1019.2
20260901042609 78 237 0.0 0.0 0.00 0.00 0.00 99 1019.2
20260901042105 78 235 0.0 0.0 0.00 0.00 0.00 99 1019.2
20260901041600 78 235 0.0 0.0 0.00 0.00 0.00 99 1018.9
20260901041055 78 235 0.0 0.0 0.00 0.00 0.00 99 1018.9
20260901040554 78 230 0.0 0.0 0.00 0.00 0.00 99 1019.2
20260901040049 78 231 0.0 0.0 0.00 0.00 0.00 99 1018.9
20260901035547 78 230 0.0 0.0 0.00 0.00 0.00 99 1018.9
20260901035045 78 339 0.0 0.0 0.00 0.00 0.00 99 1019.2
20260901034540 78 5 0.0 0.0 0.00 0.00 0.00 99 1018.9
20260901034035 78 5 0.0 0.0 0.00 0.00 0.00 99 1019.2
20260901033533 78 4 0.0 0.0 0.00 0.00 0.00 99 1019.2
20260901033028 78 4 0.0 0.0 0.00 0.00 0.00 99 1019.2
20260901032526 79 4 0.0 0.0 0.00 0.00 0.00 99 1019.2
20260901032022 78 5 0.0 0.0 0.00 0.00 0.00 99 1018.9
20260901031517 78 4 0.0 0.0 0.00 0.00 0.00 99 1019.2
20260901031012 79 4 0.0 0.0 0.00 0.00 0.00 99 1019.2
20260901030512 79 4 0.0 0.0 0.00 0.00 0.00 99 1019.2
20260901030007 79 38 0.0 0.0 0.00 0.00 0.00 99 1019.2
20260901025501 79 38 0.0 0.0 0.00 0.00 0.00 99 1019.2
20260901025000 79 38 0.0 0.0 0.00 0.00 0.00 99 1019.2
20260901024455 79 43 0.0 0.0 0.00 0.00 0.00 99 1019.2
20260901023954 79 41 0.0 0.0 0.00 0.00 0.00 99 1019.6
20260901023449 79 56 0.0 0.0 0.00 0.00 0.00 99 1019.2
20260901022944 79 13 0.0 0.0 0.00 0.00 0.00 99 1019.2
20260901022440 79 43 0.0 0.0 0.00 0.00 0.00 99 1019.6
20260901021934 79 30 0.0 0.0 0.00 0.00 0.00 99 1019.2
20260901021430 79 359 0.0 0.0 0.00 0.00 0.00 99 1019.2
20260901020925 79 359 0.0 0.0 0.00 0.00 0.00 99 1018.9
20260901020421 79 358 0.0 0.0 0.00 0.00 0.00 99 1019.2
20260901015919 79 3 0.0 0.0 0.00 0.00 0.00 99 1018.9
20260901015416 79 23 0.0 0.0 0.00 0.00 0.00 99 1019.2
20260901014915 79 62 0.0 0.0 0.00 0.00 0.00 99 1018.9
20260901014411 79 13 0.0 0.0 0.00 0.00 0.00 99 1018.9
20260901013906 79 43 0.0 0.0 0.00 0.00 0.00 99 1018.9
20260901013357 79 4 0.0 0.0 0.00 0.00 0.00 99 1018.6
20260901012852 79 18 0.0 0.0 0.00 0.00 0.00 99 1018.6
20260901012346 79 36 0.0 0.0 0.00 0.00 0.00 99 1018.2
20260901011842 79 6 0.0 0.0 0.00 0.00 0.00 99 1018.9
20260901011338 79 5 0.0 0.0 0.00 0.00 0.00 99 1018.9
20260901010832 79 15 0.0 0.0 0.00 0.00 0.00 99 1018.6
20260901010326 79 31 0.0 0.0 0.00 0.00 0.00 99 1018.6
20260901005825 79 41 0.0 0.0 0.00 0.00 0.00 99 1018.6
20260901005320 79 66 0.0 0.0 0.00 0.00 0.00 99 1018.6
20260901004820 79 66 0.0 0.0 0.00 0.00 0.00 99 1018.6
20260901004314 79 64 0.0 0.0 0.00 0.00 0.00 99 1018.2
20260901003808 79 78 0.0 0.0 0.00 0.00 0.00 99 1018.6
20260901003303 79 1 0.0 0.0 0.00 0.00 0.00 99 1018.6
20260901002802 79 232 0.0 0.0 0.00 0.00 0.00 99 1018.2
20260901002257 79 324 0.0 0.0 0.00 0.00 0.00 99 1018.2
20260901001752 79 272 1.0 2.0 0.00 0.00 0.00 99 1018.2
20260901001248 79 229 0.0 0.0 0.00 0.00 0.00 99 1018.2
20260901000737 79 0 0.0 0.0 0.00 0.00 0.00 99 1017.9
20260901000233 79 351 0.0 0.0 0.00 0.00 0.00 98 1017.9
20260831235731 79 14 0.0 0.0 0.00 0.00 0.00 98 1018.2
20260831235227 79 14 0.0 0.0 0.00 0.00 0.00 98 1018.2
20260831234722 79 347 0.0 0.0 0.00 0.00 0.00 98 1017.9
20260831234221 79 351 0.0 0.0 0.00 0.00 0.00 98 1018.2
20260831233711 79 351 0.0 0.0 0.00 0.00 0.00 98 1017.9
20260831233206 79 351 0.0 0.0 0.00 0.00 0.00 98 1017.9
20260831232700 79 354 0.0 0.0 0.00 0.00 0.00 97 1017.9
20260831232157 79 359 0.0 0.0 0.00 0.00 0.00 97 1018.2
20260831231653 79 358 0.0 0.0 0.00 0.00 0.00 97 1017.9
20260831231149 79 0 0.0 0.0 0.00 0.00 0.00 97 1018.2
20260831230643 79 2 0.0 0.0 0.00 0.00 0.00 97 1017.9
20260831230139 79 14 2.0 2.0 0.00 0.00 0.00 97 1017.9
20260831225638 79 6 2.0 2.0 0.00 0.00 0.00 97 1017.9
20260831225133 79 349 1.0 2.0 0.00 0.00 0.00 97 1018.2
20260831224629 78 349 2.0 2.0 0.00 0.00 0.00 97 1017.9
20260831224124 78 38 1.0 1.0 0.00 0.00 0.00 97 1018.2
20260831223619 78 69 1.0 1.0 0.00 0.00 0.00 97 1018.2
20260831223115 78 77 0.0 1.0 0.00 0.00 0.00 97 1018.2
20260831222611 78 92 1.0 1.0 0.00 0.00 0.00 97 1018.2
20260831222111 78 129 1.0 1.0 0.00 0.00 0.00 97 1018.2
20260831221607 78 77 0.0 1.0 0.00 0.00 0.00 97 1018.2
20260831221102 78 92 0.0 1.0 0.00 0.00 0.00 97 1018.2
20260831220556 78 197 0.0 0.0 0.00 0.00 0.00 97 1018.2
20260831220052 78 257 1.0 1.0 0.00 0.00 0.00 97 1018.6
20260831215548 78 289 0.0 1.0 0.00 0.00 0.00 97 1018.6
20260831215043 78 231 3.0 3.0 0.00 0.00 0.00 97 1018.9
20260831214541 79 285 1.0 2.0 0.00 0.00 0.00 96 1018.9
20260831214036 81 179 2.0 2.0 0.00 0.00 0.00 95 1018.9
20260831213533 81 224 1.0 2.0 0.00 0.00 0.00 96 1018.9
20260831213027 82 263 3.0 5.0 0.00 0.00 0.00 93 1018.9
20260831212523 82 240 2.0 2.0 0.00 0.00 0.00 93 1018.9
20260831212019 83 188 2.0 2.0 0.00 0.00 0.00 92 1018.9
20260831211514 83 260 3.0 3.0 0.00 0.00 0.00 91 1018.6
20260831211013 83 226 2.0 2.0 0.00 0.00 0.00 91 1018.6
20260831210508 83 198 1.0 1.0 0.00 0.00 0.00 91 1018.9
20260831210004 83 246 2.0 2.0 0.00 0.00 0.00 92 1018.6
20260831205459 82 207 2.0 2.0 0.00 0.00 0.00 92 1018.6
20260831204955 82 225 2.0 2.0 0.00 0.00 0.00 92 1018.6
20260831204454 82 210 1.0 2.0 0.00 0.00 0.00 91 1018.6
20260831203953 82 171 1.0 1.0 0.00 0.00 0.00 92 1018.2
20260831203448 82 175 1.0 1.0 0.00 0.00 0.00 92 1018.6
20260831202945 82 242 3.0 3.0 0.00 0.00 0.00 93 1018.6
20260831202441 82 195 3.0 3.0 0.00 0.00 0.00 93 1018.2
20260831201940 82 175 2.0 2.0 0.00 0.00 0.00 93 1018.6
20260831201439 82 99 3.0 3.0 0.00 0.00 0.00 93 1018.2
20260831200935 82 172 2.0 2.0 0.00 0.00 0.00 93 1018.2
20260831200430 83 182 3.0 3.0 0.00 0.00 0.00 93 1018.6
20260831195925 83 216 1.0 2.0 0.00 0.00 0.00 92 1018.2
20260831195420 83 162 4.0 5.0 0.00 0.00 0.00 91 1018.2
20260831194915 83 196 3.0 3.0 0.00 0.00 0.00 91 1018.2
20260831194411 84 194 2.0 2.0 0.00 0.00 0.00 89 1018.2
20260831193910 85 95 2.0 3.0 0.00 0.00 0.00 88 1018.2
20260831193405 85 154 2.0 2.0 0.00 0.00 0.00 87 1018.6
20260831192900 85 153 1.0 1.0 0.00 0.00 0.00 86 1018.9
20260831192401 85 155 1.0 1.0 0.00 0.00 0.00 85 1018.6
20260831191856 85 96 1.0 1.0 0.00 0.00 0.00 85 1018.6
20260831191352 85 151 0.0 0.0 0.00 0.00 0.00 85 1018.6
20260831190848 84 150 2.0 2.0 0.00 0.00 0.00 85 1018.6
20260831190347 84 101 1.0 2.0 0.00 0.00 0.00 85 1018.6
20260831185847 84 98 1.0 2.0 0.00 0.00 0.00 88 1018.6
20260831185343 84 79 1.0 1.0 0.00 0.00 0.00 88 1018.6
20260831184842 83 48 1.0 2.0 0.00 0.00 0.00 89 1018.6
20260831184338 84 47 1.0 1.0 0.00 0.00 0.00 88 1018.9
20260831183833 83 85 2.0 2.0 0.00 0.00 0.00 88 1018.9
20260831183332 84 55 3.0 5.0 0.00 0.00 0.00 87 1018.9
20260831182832 84 40 2.0 3.0 0.00 0.00 0.00 85 1018.9
20260831182327 84 69 4.0 6.0 0.00 0.00 0.00 82 1018.9
20260831181822 84 42 5.0 7.0 0.00 0.00 0.00 80 1018.9
20260831181317 84 45 6.0 7.0 0.00 0.00 0.00 80 1018.6
20260831180812 84 48 8.0 8.0 0.00 0.00 0.00 80 1018.6
20260831180307 83 60 4.0 6.0 0.00 0.00 0.00 83 1018.9
20260831175806 83 63 3.0 5.0 0.00 0.00 0.00 84 1018.6
20260831175306 83 61 5.0 7.0 0.00 0.00 0.00 83 1018.9
20260831174758 83 46 4.0 5.0 0.00 0.00 0.00 84 1018.6
20260831174254 83 46 9.0 10.0 0.00 0.00 0.00 86 1018.9
20260831173753 83 47 10.0 15.0 0.00 0.00 0.00 87 1018.6
20260831173247 84 45 7.0 9.0 0.00 0.00 0.00 87 1018.9
20260831172742 83 49 11.0 14.0 0.00 0.00 0.00 87 1018.9
20260831172238 84 35 8.0 11.0 0.00 0.00 0.00 86 1018.9
20260831171737 85 48 10.0 16.0 0.00 0.00 0.00 85 1019.2
20260831171235 85 50 11.0 13.0 0.00 0.00 0.00 84 1019.6
20260831170731 84 37 9.0 15.0 0.00 0.00 0.00 85 1019.6
20260831170227 84 36 12.0 16.0 0.00 0.00 0.00 85 1019.6
20260831165723 86 85 8.0 10.0 0.00 0.00 0.00 83 1019.6
20260831165220 90 14 6.0 7.0 0.00 0.00 0.00 72 1019.2
20260831164715 89 35 3.0 3.0 0.00 0.00 0.00 74 1019.2
20260831164212 89 82 4.0 5.0 0.00 0.00 0.00 73 1019.2
20260831163706 90 45 4.0 5.0 0.00 0.00 0.00 72 1019.6
20260831163202 89 76 2.0 2.0 0.00 0.00 0.00 73 1019.6
20260831162701 89 58 5.0 6.0 0.00 0.00 0.00 71 1019.2
20260831162200 89 73 2.0 2.0 0.00 0.00 0.00 72 1019.2
20260831161655 90 172 0.0 0.0 0.00 0.00 0.00 73 1019.2
20260831161152 90 330 3.0 3.0 0.00 0.00 0.00 72 1019.6
20260831160651 88 346 2.0 3.0 0.00 0.00 0.00 76 1019.6
20260831160146 88 45 5.0 7.0 0.00 0.00 0.00 76 1019.9
20260831155645 88 25 1.0 2.0 0.00 0.00 0.00 76 1019.9
20260831155141 88 61 3.0 5.0 0.00 0.00 0.00 79 1019.9
20260831154636 88 30 3.0 3.0 0.00 0.00 0.00 78 1019.9
20260831154132 90 57 2.0 2.0 0.00 0.00 0.00 76 1019.9
20260831153631 87 36 0.0 1.0 0.00 0.00 0.00 79 1019.9
20260831153128 87 48 2.0 2.0 0.00 0.00 0.00 80 1019.9
20260831152623 86 66 1.0 1.0 0.00 0.00 0.00 82 1019.9
20260831152119 86 98 1.0 1.0 0.00 0.00 0.00 83 1019.9
20260831151619 86 117 1.0 1.0 0.00 0.00 0.00 82 1019.9
20260831151113 87 200 0.0 0.0 0.00 0.00 0.00 83 1019.6
20260831150608 87 139 0.0 0.0 0.00 0.00 0.00 82 1019.9
20260831150104 88 207 1.0 1.0 0.00 0.00 0.00 79 1019.6
20260831145558 87 18 0.0 1.0 0.00 0.00 0.00 81 1019.9
20260831145054 87 167 1.0 2.0 0.00 0.00 0.00 82 1019.6
20260831144549 86 197 1.0 2.0 0.00 0.00 0.00 83 1019.6
20260831144045 85 149 1.0 1.0 0.00 0.00 0.00 84 1019.6
20260831143539 86 62 1.0 1.0 0.00 0.00 0.00 84 1019.6
20260831143035 86 318 0.0 0.0 0.00 0.00 0.00 84 1019.6
20260831142532 86 136 0.0 0.0 0.00 0.00 0.00 85 1019.6
20260831142027 86 157 1.0 1.0 0.00 0.00 0.00 84 1019.6
20260831141525 85 44 3.0 3.0 0.00 0.00 0.00 87 1019.6
20260831141021 86 48 3.0 3.0 0.00 0.00 0.00 87 1019.9
20260831140520 86 44 3.0 3.0 0.00 0.00 0.00 85 1019.9
20260831140015 86 353 2.0 2.0 0.00 0.00 0.00 87 1019.9
20260831135512 86 313 2.0 2.0 0.00 0.00 0.00 88 1019.6
20260831135008 85 320 2.0 2.0 0.00 0.00 0.00 90 1019.6
20260831134504 84 62 1.0 2.0 0.00 0.00 0.00 92 1019.6
20260831134003 84 36 2.0 2.0 0.00 0.00 0.00 92 1019.6
20260831133458 84 54 2.0 2.0 0.00 0.00 0.00 93 1019.6
20260831132953 84 72 1.0 2.0 0.00 0.00 0.00 92 1019.6
20260831132449 84 15 2.0 2.0 0.00 0.00 0.00 91 1019.6
20260831131948 83 90 0.0 1.0 0.00 0.00 0.00 93 1019.6
20260831131443 83 69 1.0 1.0 0.00 0.00 0.00 93 1019.6
20260831130939 83 124 0.0 1.0 0.00 0.00 0.00 94 1019.6
20260831130434 82 57 1.0 1.0 0.00 0.00 0.00 96 1019.6
20260831125933 82 72 3.0 3.0 0.00 0.00 0.00 96 1019.6
20260831125433 82 85 1.0 1.0 0.00 0.00 0.00 96 1019.2
20260831124929 81 334 1.0 2.0 0.00 0.00 0.00 97 1019.6
20260831124425 81 63 2.0 2.0 0.00 0.00 0.00 99 1019.6
20260831123921 80 59 2.0 2.0 0.00 0.00 0.00 99 1018.9
20260831123419 80 39 1.0 2.0 0.00 0.00 0.00 99 1019.2
20260831122914 80 51 1.0 2.0 0.00 0.00 0.00 99 1019.2
20260831122409 79 99 0.0 0.0 0.00 0.00 0.00 99 1019.2
20260831121904 79 86 1.0 1.0 0.00 0.00 0.00 99 1018.9
20260831121400 78 40 2.0 2.0 0.00 0.00 0.00 99 1018.9
20260831120855 78 82 1.0 1.0 0.00 0.00 0.00 99 1018.9
20260831120350 78 66 1.0 1.0 0.00 0.00 0.00 99 1018.9
20260831115845 78 64 0.0 1.0 0.00 0.00 0.00 99 1018.9
20260831115342 77 59 1.0 1.0 0.00 0.00 0.00 99 1018.9
20260831114841 77 23 0.0 0.0 0.00 0.00 0.00 99 1018.9
20260831114340 77 33 1.0 1.0 0.00 0.00 0.00 99 1018.9
20260831113835 77 79 0.0 0.0 0.00 0.00 0.00 99 1018.9
20260831113335 76 104 0.0 0.0 0.00 0.00 0.00 99 1018.9
20260831112830 76 104 0.0 0.0 0.00 0.00 0.00 99 1018.9
20260831112325 76 105 0.0 0.0 0.00 0.00 0.00 99 1018.6
20260831111820 76 105 0.0 0.0 0.00 0.00 0.00 99 1018.6
20260831111317 76 104 0.0 0.0 0.00 0.00 0.00 99 1018.6
20260831110812 76 104 0.0 0.0 0.00 0.00 0.00 99 1018.6
20260831110307 76 104 0.0 0.0 0.00 0.00 0.00 99 1018.6